Regional Weather Roundup
Issued by NWS

Home | Current Version | Previous Version | Graphics & Text | Print | Product List | Glossary On
Versions: 1 2 3 4 5 6 7 8 9 10 11 12 13 14 15 16 17 18 19 20 21 22 23 24 25 26 27 28 29 30 31 32 33 34 35 36 37 38 39 40 41 42 43 44 45 46 47 48 49 50
000
ASUS43 KOAX 282010
RWRNE

WEATHER ROUNDUP FOR NEBRASKA
NATIONAL WEATHER SERVICE OMAHA NE
300 PM CDT THU MAY 28 2015

NOTES: SATELLITE DATA IS BEING USED TO AUGMENT CLOUD COVER ABOVE
       12000 FEET.
       "FAIR" INDICATES FEW OR NO CLOUDS BELOW 12,000 FEET WITH NO
       SIGNIFICANT WEATHER AND/OR OBSTRUCTIONS TO VISIBILITY.

  * THESE STATIONS DO NOT REPORT WEATHER SUCH AS RAIN...SNOW OR FOG.

NEZ001>004-019>022-054>056-282100-
NEBRASKA PANHANDLE

CITY           SKY/WX    TMP DP  RH WIND       PRES   REMARKS
SCOTTSBLUFF    PTSUNNY   68  49  50 W6G20     29.96F
ALLIANCE       PTSUNNY   73  50  44 W9        29.93F
CHADRON        PTSUNNY   71  55  56 NW8       29.93S
KIMBALL          N/A    N/A N/A N/A MISG        N/A
SIDNEY         PTSUNNY   72  52  49 NE5       29.97F
$$

NEZ057>060-069>072-079>082-282100-
SOUTHWEST NEBRASKA

CITY           SKY/WX    TMP DP  RH WIND       PRES   REMARKS
NORTH PLATTE   CLOUDY    73  58  59 S13       29.95F
IMPERIAL       PTSUNNY   71  59  65 SE6       29.95F
LEXINGTON      PTSUNNY   72  63  72 S13       29.95F
MCCOOK         CLOUDY    75  60  59 S13       29.95F
OGALLALA       MOSUNNY   73  58  58 E9        29.95F
$$

NEZ005>010-023>029-035>040-094-282100-
NORTH CENTRAL NEBRASKA

CITY           SKY/WX    TMP DP  RH WIND       PRES   REMARKS
VALENTINE      CLOUDY    72  58  61 S12       29.92S
AINSWORTH      CLOUDY    75  61  60 S13G18    29.92S
BROKEN BOW     CLOUDY    72  59  63 S14G24    29.96F
O`NEILL        CLOUDY    79  56  46 S14       29.93F
ORD            CLOUDY    75  56  51 S17       29.93F
THEDFORD       PTSUNNY   76  59  56 S16G22    29.93F
$$

NEZ041-046>049-061>064-073>077-083>087-282100-
SOUTH CENTRAL NEBRASKA

CITY           SKY/WX    TMP DP  RH WIND       PRES   REMARKS
GRAND ISLAND   CLOUDY    76  59  55 S14       29.96F
AURORA         CLOUDY    76  59  56 S13       29.96F
HASTINGS       CLOUDY    72  61  68 S12       29.97F
HEBRON         CLOUDY    77  61  56 S14       29.97F
HOLDREGE       CLOUDY    73  59  61 S15G21    29.97F
KEARNEY *      CLOUDY    73  61  64 S13       29.96F
YORK           PTSUNNY   79  59  50 S13G21    29.96F
$$

NEZ011>018-030>034-042>045-282100-
NORTHEAST NEBRASKA

CITY           SKY/WX    TMP DP  RH WIND       PRES   REMARKS
NORFOLK        PTSUNNY   77  61  57 SE12G20   29.95F
ALBION         PTSUNNY   77  56  47 SW12      29.95F
BLAIR          RAIN      67  63  84 S8        30.02F
COLUMBUS *     CLOUDY    75  61  60 SE14      29.98F
FREMONT        LGT RAIN  68  65  88 SE9       30.01F
TEKAMAH        LGT RAIN  69  64  84 S10       30.02S
WAYNE          PTSUNNY   73  62  69 SE21      29.99S
$$

NEZ050>053-065>068-078-088>093-282100-
SOUTHEAST NEBRASKA

CITY           SKY/WX    TMP DP  RH WIND       PRES   REMARKS
LINCOLN        CLOUDY    72  65  78 SE13      30.00F
OMAHA EPPLEY   LGT RAIN  71  65  81 SE17      30.02F
BEATRICE       CLOUDY    72  66  80 S12       30.00F
FALLS CITY     LGT RAIN  69  65  86 SE16      30.03F
NEBRASKA CITY  CLOUDY    70  61  73 S14       30.03F
PLATTSMOUTH    LGT RAIN  69  62  78 S10       30.03F
$$

NEZ044-045-051>053-067-282100-
OMAHA AREA

CITY           SKY/WX    TMP DP  RH WIND       PRES   REMARKS
OMAHA EPPLEY   LGT RAIN  71  65  81 SE17      30.02F
BLAIR          RAIN      67  63  84 S8        30.02F
FREMONT        LGT RAIN  68  65  88 SE9       30.01F
MILLARD        LGT RAIN  70  64  83 S7        30.02F
OFFUTT AFB     DRIZZLE   70  63  78 SE14      30.01F
PLATTSMOUTH    LGT RAIN  69  62  78 S10       30.03F
WAHOO          LGT RAIN  69  65  88 SE12      30.01F
$$


USA.gov is the U.S. government's official web portal to all federal, state and local government web resources and services.